TimeMDT,TemperatureF,Dew PointF,Humidity,Sea Level PressureIn,VisibilityMPH,Wind Direction,Wind SpeedMPH,Gust SpeedMPH,PrecipitationIn,Events,Conditions,WindDirDegrees,DateUTC
12:53 AM,46.9,41.0,80,30.04,10.0,Calm,Calm,-,0.00,,Mostly Cloudy,0,2013-10-25 06:53:00
1:53 AM,45.0,39.9,82,30.07,10.0,Calm,Calm,-,N/A,,Mostly Cloudy,0,2013-10-25 07:53:00
2:53 AM,46.0,42.1,86,30.07,10.0,ESE,6.9,-,0.03,,Overcast,120,2013-10-25 08:53:00
3:53 AM,45.0,42.1,90,30.06,10.0,SE,8.1,-,0.00,,Overcast,130,2013-10-25 09:53:00
4:53 AM,45.0,42.1,90,30.09,10.0,North,4.6,-,0.00,Rain,Light Rain,360,2013-10-25 10:53:00
5:53 AM,44.1,41.0,89,30.12,10.0,Calm,Calm,-,0.01,,Mostly Cloudy,0,2013-10-25 11:53:00
7:53 AM,41.0,39.0,93,30.15,10.0,Calm,Calm,-,N/A,,Partly Cloudy,0,2013-10-25 13:53:00
8:53 AM,45.0,41.0,86,30.14,10.0,Calm,Calm,-,N/A,,Partly Cloudy,0,2013-10-25 14:53:00
9:53 AM,50.0,42.1,74,30.12,10.0,West,3.5,-,N/A,,Scattered Clouds,260,2013-10-25 15:53:00
10:53 AM,55.0,39.9,57,30.10,10.0,SSE,5.8,-,N/A,,Clear,160,2013-10-25 16:53:00
11:53 AM,57.0,39.9,53,30.06,10.0,Calm,Calm,-,N/A,,Clear,0,2013-10-25 17:53:00
12:53 PM,61.0,41.0,48,30.02,10.0,SSE,9.2,-,N/A,,Clear,150,2013-10-25 18:53:00
1:53 PM,59.0,36.0,42,30.02,10.0,NW,8.1,-,N/A,,Mostly Cloudy,310,2013-10-25 19:53:00
2:14 PM,48.2,37.4,66,30.24,10.0,NNW,19.6,26.5,0.00,Rain,Light Rain,330,2013-10-25 20:14:00
2:35 PM,42.8,37.4,81,30.29,2.5,Calm,Calm,-,0.11,Rain,Rain,0,2013-10-25 20:35:00
2:53 PM,45.0,39.0,80,30.15,7.0,NNW,11.5,16.1,0.16,Rain,Light Rain,340,2013-10-25 20:53:00
3:53 PM,43.0,39.0,86,30.16,10.0,North,16.1,-,0.06,,Overcast,350,2013-10-25 21:53:00
4:53 PM,45.0,37.9,76,30.11,10.0,NNE,15.0,28.8,N/A,,Overcast,20,2013-10-25 22:53:00
5:53 PM,48.0,39.0,71,30.11,10.0,NNW,5.8,-,N/A,,Overcast,330,2013-10-25 23:53:00
6:53 PM,44.1,37.9,79,30.14,10.0,North,11.5,-,N/A,,Clear,10,2013-10-26 00:53:00
7:53 PM,42.1,37.0,82,30.17,10.0,North,5.8,-,N/A,,Clear,10,2013-10-26 01:53:00
8:53 PM,41.0,37.0,86,30.18,10.0,NE,4.6,-,N/A,,Clear,50,2013-10-26 02:53:00
9:53 PM,39.0,36.0,89,30.18,10.0,Calm,Calm,-,N/A,,Clear,0,2013-10-26 03:53:00
10:53 PM,36.0,34.0,93,30.17,10.0,Calm,Calm,-,N/A,,Clear,0,2013-10-26 04:53:00
11:53 PM,34.0,33.1,96,30.16,9.0,Calm,Calm,-,N/A,,Clear,0,2013-10-26 05:53:00